CPA451 VHHH-VRMM

Flight info

Callsign CPA451
Flight time 5h 43m
Altitude 30000
Route PECA1C PECAN V10 SIKOU A202 SAV B460 KRT W1 BKK M502 LALIT P762 KAT G465 DOPDO DOPD2A
Aircraft A21N/M-SDE3FGHIRWY/LB1

Departure

Time 2026-05-06 03:50
Airport Hong Kong International Airport (VHHH)

Arrival

Time 2026-05-06 09:33
Airport Velana International Airport (VRMM)
Time Latitude Longitude Altitude Speed Heading
2026-05-06 03:22 22.31366 113.92474 32 ft 0 kts 26°
2026-05-06 03:35 22.31358 113.92471 32 ft 2 kts 26°
2026-05-06 03:35 22.31344 113.92463 32 ft 2 kts 26°
2026-05-06 03:36 22.31331 113.92456 31 ft 2 kts 26°
2026-05-06 03:36 22.31318 113.92448 32 ft 2 kts 26°
2026-05-06 03:36 22.31304 113.92442 31 ft 2 kts 26°
2026-05-06 03:36 22.31295 113.92437 31 ft 1 kts 26°
2026-05-06 03:37 22.31281 113.92434 32 ft 2 kts 344°
2026-05-06 03:37 22.31268 113.92442 31 ft 1 kts 306°
2026-05-06 03:37 22.31265 113.92448 31 ft 1 kts 291°
2026-05-06 03:37 22.31263 113.92452 31 ft 0 kts 295°
2026-05-06 03:44 22.31265 113.92449 31 ft 0 kts 295°
2026-05-06 03:44 22.31271 113.92436 31 ft 4 kts 298°
2026-05-06 03:44 22.31295 113.92387 32 ft 10 kts 297°
2026-05-06 03:44 22.31336 113.92296 32 ft 16 kts 296°
2026-05-06 03:45 22.31393 113.92170 31 ft 20 kts 296°
2026-05-06 03:45 22.31503 113.92067 31 ft 21 kts 338°
2026-05-06 03:45 22.31606 113.91977 31 ft 19 kts 267°
2026-05-06 03:45 22.31567 113.91839 31 ft 19 kts 251°
2026-05-06 03:46 22.31520 113.91695 31 ft 21 kts 251°
2026-05-06 03:46 22.31467 113.91530 31 ft 25 kts 251°
2026-05-06 03:46 22.31405 113.91340 31 ft 27 kts 250°
2026-05-06 03:46 22.31338 113.91134 31 ft 30 kts 251°
2026-05-06 03:47 22.31267 113.90915 31 ft 31 kts 251°
2026-05-06 03:47 22.31197 113.90696 31 ft 29 kts 251°
2026-05-06 03:47 22.31131 113.90492 31 ft 27 kts 251°
2026-05-06 03:47 22.31069 113.90299 31 ft 27 kts 250°
2026-05-06 03:48 22.31007 113.90105 31 ft 27 kts 250°
2026-05-06 03:48 22.30944 113.89908 31 ft 25 kts 251°
2026-05-06 03:48 22.30970 113.89790 31 ft 17 kts 339°
2026-05-06 03:48 22.31078 113.89781 31 ft 16 kts 49°
2026-05-06 03:49 22.31122 113.89890 31 ft 15 kts 71°
2026-05-06 03:49 22.31157 113.89999 31 ft 15 kts 71°
2026-05-06 03:49 22.31224 113.90209 31 ft 57 kts 71°
2026-05-06 03:49 22.31425 113.90837 32 ft 118 kts 70°
2026-05-06 03:50 22.31756 113.91862 32 ft 170 kts 71°
2026-05-06 03:50 22.32186 113.93167 320 ft 190 kts 70°
2026-05-06 03:50 22.32670 113.94532 863 ft 198 kts 72°
2026-05-06 03:50 22.33107 113.95921 1539 ft 203 kts 74°
2026-05-06 03:51 22.33474 113.97440 1926 ft 219 kts 80°
2026-05-06 03:51 22.33746 113.99079 2527 ft 223 kts 82°
2026-05-06 03:51 22.34006 114.00723 3162 ft 225 kts 82°
2026-05-06 03:51 22.34274 114.02401 3740 ft 229 kts 82°
2026-05-06 03:52 22.34326 114.04124 4269 ft 232 kts 108°
2026-05-06 03:52 22.33510 114.05614 4808 ft 233 kts 136°
2026-05-06 03:52 22.32334 114.06824 5367 ft 237 kts 137°
2026-05-06 03:52 22.31134 114.08067 5897 ft 241 kts 142°
2026-05-06 03:53 22.29657 114.08885 6383 ft 241 kts 172°
2026-05-06 03:53 22.28000 114.08965 6928 ft 241 kts 184°
2026-05-06 03:53 22.26317 114.08865 7433 ft 244 kts 185°
2026-05-06 03:53 22.24596 114.08784 7917 ft 248 kts 184°
2026-05-06 03:54 22.22842 114.08720 8193 ft 262 kts 184°
2026-05-06 03:54 22.20953 114.08674 8464 ft 275 kts 183°
2026-05-06 03:54 22.18999 114.08643 8737 ft 289 kts 182°
2026-05-06 03:54 22.16978 114.08975 9089 ft 301 kts 158°
2026-05-06 03:55 22.15276 114.10329 9561 ft 308 kts 129°
2026-05-06 03:55 22.14196 114.12331 10081 ft 311 kts 116°
2026-05-06 03:55 22.13238 114.14469 10400 ft 322 kts 117°
2026-05-06 03:55 22.12235 114.16662 10634 ft 335 kts 117°
2026-05-06 03:56 22.11171 114.18935 10866 ft 347 kts 118°
2026-05-06 03:56 22.10049 114.21302 11079 ft 360 kts 118°
2026-05-06 03:56 22.08880 114.23738 11296 ft 372 kts 120°
2026-05-06 03:56 22.07392 114.26050 11499 ft 381 kts 132°
2026-05-06 03:57 22.05446 114.28055 11698 ft 390 kts 143°
2026-05-06 03:57 22.03238 114.29824 11896 ft 400 kts 146°
2026-05-06 03:57 22.00948 114.31574 12079 ft 410 kts 148°
2026-05-06 03:57 21.98328 114.32900 12222 ft 415 kts 167°
2026-05-06 03:58 21.95459 114.33182 12502 ft 415 kts 187°
2026-05-06 03:58 21.92682 114.32448 12889 ft 411 kts 205°
2026-05-06 03:58 21.90290 114.30846 13284 ft 408 kts 220°
2026-05-06 03:58 21.88066 114.28919 13671 ft 410 kts 221°
2026-05-06 03:59 21.85821 114.26979 14009 ft 414 kts 221°
2026-05-06 03:59 21.83567 114.25042 14359 ft 417 kts 220°
2026-05-06 03:59 21.81271 114.23077 14707 ft 419 kts 220°
2026-05-06 03:59 21.78980 114.21124 15052 ft 422 kts 220°
2026-05-06 04:00 21.76690 114.19173 15369 ft 424 kts 220°
2026-05-06 04:00 21.74357 114.17189 15682 ft 427 kts 220°
2026-05-06 04:00 21.72014 114.15198 15989 ft 429 kts 220°
2026-05-06 04:00 21.69663 114.13201 16294 ft 431 kts 220°
2026-05-06 04:01 21.67289 114.11229 16583 ft 434 kts 217°
2026-05-06 04:01 21.64664 114.09528 16846 ft 439 kts 209°
2026-05-06 04:01 21.61862 114.08250 17130 ft 443 kts 201°
2026-05-06 04:01 21.58857 114.07337 17418 ft 446 kts 196°
2026-05-06 04:02 21.55843 114.06556 17698 ft 448 kts 195°
2026-05-06 04:02 21.52808 114.05789 17967 ft 450 kts 195°
2026-05-06 04:02 21.49703 114.04999 18243 ft 452 kts 195°
2026-05-06 04:02 21.46687 114.04138 18506 ft 453 kts 199°
2026-05-06 04:03 21.43714 114.02923 18775 ft 453 kts 206°
2026-05-06 04:03 21.40934 114.01395 19054 ft 452 kts 212°
2026-05-06 04:03 21.38239 113.99573 19340 ft 453 kts 215°
2026-05-06 04:03 21.35618 113.97716 19602 ft 454 kts 215°
2026-05-06 04:04 21.32982 113.95834 19855 ft 456 kts 216°
2026-05-06 04:04 21.30334 113.93947 20101 ft 457 kts 216°
2026-05-06 04:04 21.27683 113.92064 20337 ft 459 kts 216°
2026-05-06 04:04 21.25019 113.90176 20580 ft 461 kts 216°
2026-05-06 04:05 21.22314 113.88264 20818 ft 462 kts 216°
2026-05-06 04:05 21.19641 113.86375 21063 ft 463 kts 216°
2026-05-06 04:05 21.16953 113.84476 21297 ft 465 kts 216°
2026-05-06 04:05 21.14227 113.82555 21551 ft 465 kts 216°
2026-05-06 04:06 21.11598 113.80576 21770 ft 465 kts 222°
2026-05-06 04:06 21.09340 113.78082 21978 ft 462 kts 234°
2026-05-06 04:06 21.07635 113.75195 22210 ft 460 kts 245°
2026-05-06 04:06 21.06457 113.72055 22425 ft 460 kts 252°
2026-05-06 04:07 21.05401 113.68803 22646 ft 461 kts 252°
2026-05-06 04:07 21.04363 113.65556 22834 ft 463 kts 252°
2026-05-06 04:07 21.03339 113.62357 23480 ft 452 kts 252°
2026-05-06 04:07 21.02325 113.59203 24211 ft 441 kts 252°
2026-05-06 04:08 21.01338 113.56145 24949 ft 430 kts 252°
2026-05-06 04:08 21.00380 113.53182 25682 ft 418 kts 252°
2026-05-06 04:08 20.99450 113.50314 26412 ft 406 kts 252°
2026-05-06 04:08 20.98539 113.47507 27147 ft 393 kts 252°
2026-05-06 04:09 20.97657 113.44791 27807 ft 383 kts 252°
2026-05-06 04:09 20.96791 113.42124 27950 ft 387 kts 252°
2026-05-06 04:09 20.95892 113.39356 27955 ft 394 kts 252°
2026-05-06 04:09 20.94987 113.36575 27959 ft 400 kts 252°
2026-05-06 04:10 20.94065 113.33745 28070 ft 403 kts 252°
2026-05-06 04:10 20.93162 113.30980 28748 ft 391 kts 252°
2026-05-06 04:10 20.92267 113.28239 28987 ft 393 kts 252°
2026-05-06 04:10 20.91369 113.25487 28990 ft 400 kts 252°
2026-05-06 04:11 20.89494 113.19749 29220 ft 408 kts 252°
2026-05-06 04:11 20.88577 113.16951 29737 ft 402 kts 252°
2026-05-06 04:11 20.87656 113.14139 29922 ft 404 kts 252°
2026-05-06 04:12 20.85766 113.08369 29925 ft 416 kts 252°
2026-05-06 04:12 20.83829 113.02467 29923 ft 426 kts 252°
2026-05-06 04:13 20.81843 112.96423 29924 ft 436 kts 252°
2026-05-06 04:13 20.79829 112.90305 29924 ft 444 kts 252°
2026-05-06 04:14 20.77762 112.84032 29923 ft 453 kts 252°
2026-05-06 04:14 20.75652 112.77638 29921 ft 458 kts 252°
2026-05-06 04:15 20.73533 112.71225 29926 ft 459 kts 252°
2026-05-06 04:15 20.71412 112.64817 29928 ft 459 kts 251°
2026-05-06 04:16 20.69279 112.58377 29927 ft 460 kts 252°
2026-05-06 04:16 20.67148 112.51954 29924 ft 460 kts 251°
2026-05-06 04:17 20.65009 112.45515 29923 ft 460 kts 252°
2026-05-06 04:17 20.62878 112.39108 29920 ft 460 kts 252°
2026-05-06 04:18 20.60720 112.32625 29922 ft 460 kts 251°
2026-05-06 04:18 20.58581 112.26208 29913 ft 460 kts 251°
2026-05-06 04:19 20.56658 112.19708 29899 ft 459 kts 261°
2026-05-06 04:19 20.56688 112.12975 29904 ft 459 kts 280°
2026-05-06 04:20 20.58862 112.06555 29915 ft 460 kts 294°
2026-05-06 04:20 20.61636 112.00442 29912 ft 461 kts 295°
2026-05-06 04:21 20.64441 111.94272 29915 ft 461 kts 295°
2026-05-06 04:21 20.67213 111.88140 29914 ft 461 kts 295°
2026-05-06 04:22 20.69985 111.81991 29918 ft 461 kts 295°
2026-05-06 04:23 20.74147 111.72736 29922 ft 460 kts 295°
2026-05-06 04:23 20.76915 111.66575 29923 ft 460 kts 295°
2026-05-06 04:24 20.79658 111.60457 29924 ft 459 kts 295°
2026-05-06 04:24 20.82193 111.54226 29912 ft 458 kts 285°
2026-05-06 04:25 20.82819 111.47493 29923 ft 460 kts 266°
2026-05-06 04:25 20.81287 111.40860 29930 ft 462 kts 252°
2026-05-06 04:26 20.79108 111.34407 29922 ft 462 kts 251°
2026-05-06 04:26 20.76933 111.27985 29924 ft 462 kts 251°
2026-05-06 04:27 20.74747 111.21503 29924 ft 462 kts 251°
2026-05-06 04:27 20.72576 111.15058 29924 ft 463 kts 251°
2026-05-06 04:28 20.70411 111.08634 29925 ft 463 kts 252°
2026-05-06 04:28 20.68221 111.02138 29924 ft 463 kts 252°
2026-05-06 04:29 20.50942 110.51417 29885 ft 467 kts 245°
2026-05-06 04:29 20.47512 110.45562 29902 ft 470 kts 236°
2026-05-06 04:30 20.25093 110.16479 29911 ft 470 kts 233°
2026-05-06 04:30 20.13306 110.00687 29870 ft 472 kts 234°
2026-05-06 04:31 20.09250 109.95145 29882 ft 472 kts 233°
2026-05-06 04:31 20.05180 109.89681 29885 ft 472 kts 233°
2026-05-06 04:32 20.01074 109.84212 29885 ft 473 kts 233°
2026-05-06 04:32 19.96950 109.78738 29885 ft 473 kts 233°
2026-05-06 04:33 19.92843 109.73296 29888 ft 473 kts 233°
2026-05-06 04:33 19.88734 109.67851 29897 ft 473 kts 233°
2026-05-06 04:34 19.84603 109.62383 29905 ft 473 kts 233°
2026-05-06 04:34 19.80485 109.56941 29906 ft 473 kts 233°
2026-05-06 04:35 19.76348 109.51477 29907 ft 473 kts 233°
2026-05-06 04:35 19.72237 109.46052 29906 ft 473 kts 233°
2026-05-06 04:36 19.68101 109.40601 29905 ft 473 kts 233°
2026-05-06 04:36 19.63988 109.35178 29902 ft 474 kts 233°
2026-05-06 04:37 19.59868 109.29753 29901 ft 473 kts 233°
2026-05-06 04:37 19.55738 109.24320 29906 ft 474 kts 233°
2026-05-06 04:38 19.51582 109.18858 29908 ft 474 kts 233°
2026-05-06 04:38 19.47416 109.13454 29910 ft 474 kts 232°
2026-05-06 04:39 19.43235 109.08044 29912 ft 474 kts 232°
2026-05-06 04:39 19.39055 109.02631 29909 ft 474 kts 232°
2026-05-06 04:40 19.34899 108.97247 29901 ft 474 kts 233°
2026-05-06 04:40 19.30719 108.91832 29895 ft 474 kts 232°
2026-05-06 04:41 19.26526 108.86409 29890 ft 475 kts 232°
2026-05-06 04:41 19.22364 108.81042 29888 ft 474 kts 232°
2026-05-06 04:42 19.18166 108.75637 29888 ft 474 kts 232°
2026-05-06 04:42 19.13979 108.70242 29887 ft 475 kts 232°
2026-05-06 04:43 19.09805 108.64865 29885 ft 475 kts 232°
2026-05-06 04:43 19.05599 108.59454 29881 ft 475 kts 232°
2026-05-06 04:44 19.01402 108.54056 29875 ft 475 kts 232°
2026-05-06 04:44 18.97231 108.48697 29875 ft 475 kts 232°
2026-05-06 04:45 18.93036 108.43310 29873 ft 475 kts 232°
2026-05-06 04:45 18.88847 108.37939 29874 ft 475 kts 232°
2026-05-06 04:46 18.84641 108.32549 29876 ft 475 kts 232°
2026-05-06 04:46 18.80449 108.27179 29877 ft 475 kts 232°
2026-05-06 04:47 18.76228 108.21779 29876 ft 476 kts 232°
2026-05-06 04:47 18.72024 108.16405 29880 ft 476 kts 232°
2026-05-06 04:48 18.67798 108.11008 29879 ft 476 kts 232°
2026-05-06 04:48 18.63606 108.05659 29881 ft 476 kts 232°
2026-05-06 04:49 18.59389 108.00281 29880 ft 476 kts 232°
2026-05-06 04:49 18.55166 107.94900 29881 ft 476 kts 232°
2026-05-06 04:50 18.50947 107.89529 29879 ft 476 kts 232°
2026-05-06 04:50 18.46715 107.84145 29877 ft 476 kts 232°
2026-05-06 04:51 18.42496 107.78777 29879 ft 477 kts 232°
2026-05-06 04:51 18.38267 107.73404 29877 ft 477 kts 232°
2026-05-06 04:52 18.34166 107.67986 29875 ft 476 kts 236°
2026-05-06 04:52 18.30500 107.62180 29871 ft 475 kts 239°
2026-05-06 04:53 18.26975 107.56338 29865 ft 475 kts 239°
2026-05-06 04:53 18.23429 107.50465 29863 ft 475 kts 239°
2026-05-06 04:54 18.19881 107.44598 29861 ft 475 kts 239°
2026-05-06 04:54 18.16337 107.38745 29861 ft 476 kts 239°
2026-05-06 04:55 18.12772 107.32863 29861 ft 476 kts 239°
2026-05-06 04:55 18.09225 107.27013 29862 ft 475 kts 239°
2026-05-06 04:56 18.05666 107.21158 29860 ft 475 kts 239°
2026-05-06 04:56 18.02121 107.15348 29861 ft 476 kts 239°
2026-05-06 04:57 17.98553 107.09499 29862 ft 476 kts 239°
2026-05-06 04:57 17.94988 107.03653 29864 ft 476 kts 239°
2026-05-06 04:58 17.91402 106.97774 29862 ft 477 kts 239°
2026-05-06 04:58 17.87838 106.91936 29859 ft 477 kts 239°
2026-05-06 04:59 17.84257 106.86055 29858 ft 476 kts 239°
2026-05-06 04:59 17.80710 106.80222 29849 ft 476 kts 239°
2026-05-06 04:59 17.79159 106.77224 30223 ft 466 kts 252°
2026-05-06 05:00 17.78151 106.74039 30880 ft 452 kts 250°
2026-05-06 05:00 17.76772 106.71090 30688 ft 455 kts 240°
2026-05-06 05:00 17.74838 106.68451 30099 ft 470 kts 229°
2026-05-06 05:00 17.72578 106.65887 29843 ft 477 kts 230°
2026-05-06 05:01 17.70494 106.63203 29836 ft 478 kts 235°
2026-05-06 05:01 17.66776 106.57446 29834 ft 477 kts 239°
2026-05-06 05:02 17.63213 106.51595 29830 ft 477 kts 239°
2026-05-06 05:02 17.59625 106.45718 29829 ft 477 kts 239°
2026-05-06 05:03 17.56057 106.39895 29840 ft 478 kts 239°
2026-05-06 05:03 17.52460 106.34038 29855 ft 478 kts 238°
2026-05-06 05:04 17.48853 106.28171 29872 ft 478 kts 238°
2026-05-06 05:04 17.45276 106.22356 29899 ft 478 kts 238°
2026-05-06 05:05 17.41663 106.16484 29920 ft 478 kts 238°
2026-05-06 05:05 17.38070 106.10652 29927 ft 478 kts 238°
2026-05-06 05:06 17.34484 106.04803 29920 ft 479 kts 239°
2026-05-06 05:06 17.30932 105.98938 29899 ft 479 kts 239°
2026-05-06 05:07 17.27353 105.93026 29882 ft 480 kts 239°
2026-05-06 05:07 17.23780 105.87134 29874 ft 479 kts 239°
2026-05-06 05:08 17.20217 105.81261 29875 ft 479 kts 239°
2026-05-06 05:08 17.16649 105.75384 29876 ft 479 kts 239°
2026-05-06 05:09 17.13087 105.69527 29876 ft 479 kts 239°
2026-05-06 05:09 17.09520 105.63664 29876 ft 480 kts 238°
2026-05-06 05:10 17.05936 105.57777 29877 ft 480 kts 238°
2026-05-06 05:10 17.02355 105.51901 29879 ft 480 kts 238°
2026-05-06 05:11 16.98777 105.46034 29882 ft 480 kts 238°
2026-05-06 05:11 16.95177 105.40134 29879 ft 481 kts 238°
2026-05-06 05:12 16.91579 105.34242 29877 ft 481 kts 238°
2026-05-06 05:12 16.87988 105.28363 29873 ft 481 kts 238°
2026-05-06 05:13 16.84404 105.22511 29872 ft 481 kts 238°
2026-05-06 05:13 16.80780 105.16619 29865 ft 480 kts 238°
2026-05-06 05:14 16.77175 105.10756 29865 ft 480 kts 238°
2026-05-06 05:14 16.73586 105.04920 29863 ft 481 kts 238°
2026-05-06 05:15 16.69969 104.99040 29867 ft 482 kts 238°
2026-05-06 05:15 16.66341 104.93143 29867 ft 482 kts 238°
2026-05-06 05:16 16.62742 104.87296 29872 ft 481 kts 238°
2026-05-06 05:16 16.59141 104.81452 29871 ft 481 kts 238°
2026-05-06 05:17 16.55717 104.75447 29873 ft 480 kts 243°
2026-05-06 05:17 16.52827 104.69178 29874 ft 481 kts 246°
2026-05-06 05:18 16.50028 104.62866 29878 ft 481 kts 246°
2026-05-06 05:18 16.47231 104.56568 29869 ft 481 kts 246°
2026-05-06 05:19 16.44417 104.50251 29865 ft 481 kts 246°
2026-05-06 05:19 16.41596 104.43926 29862 ft 481 kts 246°
2026-05-06 05:20 16.38775 104.37603 29859 ft 481 kts 246°
2026-05-06 05:20 16.35971 104.31323 29855 ft 481 kts 246°
2026-05-06 05:21 16.33141 104.24996 29852 ft 481 kts 246°
2026-05-06 05:21 16.30314 104.18699 29853 ft 482 kts 246°
2026-05-06 05:22 16.27470 104.12366 29850 ft 482 kts 246°
2026-05-06 05:22 16.24627 104.06037 29849 ft 482 kts 246°
2026-05-06 05:23 16.21779 103.99693 29851 ft 481 kts 246°
2026-05-06 05:23 16.17516 103.90205 29855 ft 482 kts 246°
2026-05-06 05:24 16.14680 103.83906 29863 ft 482 kts 245°
2026-05-06 05:24 16.11577 103.77772 29872 ft 483 kts 240°
2026-05-06 05:25 16.07832 103.71956 29871 ft 484 kts 234°
2026-05-06 05:25 16.03778 103.66387 29873 ft 483 kts 233°
2026-05-06 05:26 15.99699 103.60801 29872 ft 483 kts 233°
2026-05-06 05:26 15.95651 103.55248 29869 ft 483 kts 234°
2026-05-06 05:27 15.91586 103.49669 29868 ft 483 kts 234°
2026-05-06 05:27 15.87545 103.44125 29862 ft 483 kts 234°
2026-05-06 05:28 15.83466 103.38531 29862 ft 483 kts 234°
2026-05-06 05:28 15.79411 103.32989 29863 ft 483 kts 233°
2026-05-06 05:29 15.75351 103.27450 29862 ft 483 kts 233°
2026-05-06 05:29 15.71275 103.21886 29860 ft 482 kts 233°
2026-05-06 05:30 15.67227 103.16361 29859 ft 482 kts 233°
2026-05-06 05:30 15.63155 103.10805 29856 ft 482 kts 233°
2026-05-06 05:31 15.59125 103.05309 29855 ft 482 kts 233°
2026-05-06 05:31 15.55046 102.99751 29853 ft 483 kts 233°
2026-05-06 05:32 15.50979 102.94212 29852 ft 483 kts 233°
2026-05-06 05:32 15.46914 102.88680 29854 ft 483 kts 233°
2026-05-06 05:33 15.42852 102.83158 29854 ft 483 kts 233°
2026-05-06 05:33 15.38781 102.77627 29857 ft 483 kts 233°
2026-05-06 05:34 15.34706 102.72093 29859 ft 484 kts 233°
2026-05-06 05:34 15.30606 102.66528 29859 ft 484 kts 233°
2026-05-06 05:35 15.26535 102.61006 29857 ft 484 kts 233°
2026-05-06 05:35 15.22443 102.55456 29855 ft 484 kts 233°
2026-05-06 05:36 15.18382 102.49952 29855 ft 485 kts 233°
2026-05-06 05:36 15.14283 102.44406 29856 ft 485 kts 233°
2026-05-06 05:37 15.10180 102.38880 29855 ft 485 kts 233°
2026-05-06 05:37 15.06067 102.33337 29861 ft 485 kts 233°
2026-05-06 05:38 15.01965 102.27803 29863 ft 485 kts 233°
2026-05-06 05:38 14.97850 102.22256 29863 ft 486 kts 233°
2026-05-06 05:39 14.93856 102.16664 29861 ft 485 kts 237°
2026-05-06 05:39 14.90422 102.10674 29858 ft 485 kts 243°
2026-05-06 05:40 14.87611 102.04344 29861 ft 484 kts 247°
2026-05-06 05:40 14.84948 101.97959 29866 ft 484 kts 247°
2026-05-06 05:41 14.82281 101.91586 29867 ft 485 kts 247°
2026-05-06 05:41 14.79596 101.85196 29875 ft 485 kts 247°
2026-05-06 05:42 14.76905 101.78803 29878 ft 485 kts 247°
2026-05-06 05:42 14.74223 101.72437 29881 ft 484 kts 247°
2026-05-06 05:43 14.71532 101.66056 29883 ft 485 kts 247°
2026-05-06 05:43 14.68842 101.59682 29886 ft 485 kts 247°
2026-05-06 05:44 14.66159 101.53325 29887 ft 485 kts 247°
2026-05-06 05:44 14.63467 101.46954 29891 ft 485 kts 247°
2026-05-06 05:45 14.60769 101.40584 29900 ft 485 kts 247°
2026-05-06 05:45 14.58069 101.34218 29911 ft 484 kts 246°
2026-05-06 05:46 14.55363 101.27840 29930 ft 485 kts 247°
2026-05-06 05:46 14.52276 101.21681 29949 ft 485 kts 238°
2026-05-06 05:47 14.48117 101.16196 29936 ft 487 kts 227°
2026-05-06 05:47 14.43241 101.11377 29899 ft 487 kts 223°
2026-05-06 05:48 14.38254 101.06614 29857 ft 487 kts 223°
2026-05-06 05:48 14.33288 101.01852 29828 ft 487 kts 224°
2026-05-06 05:49 14.28323 100.97075 29811 ft 487 kts 223°
2026-05-06 05:49 14.23391 100.92329 29807 ft 487 kts 223°
2026-05-06 05:50 14.18431 100.87561 29804 ft 487 kts 223°
2026-05-06 05:50 14.13475 100.82799 29807 ft 488 kts 223°
2026-05-06 05:51 14.08502 100.78023 29809 ft 488 kts 223°
2026-05-06 05:51 14.03515 100.73234 29812 ft 488 kts 223°
2026-05-06 05:52 13.98586 100.68498 29816 ft 487 kts 223°
2026-05-06 05:52 13.93631 100.63686 29810 ft 487 kts 227°
2026-05-06 05:53 13.89782 100.58001 29814 ft 487 kts 244°
2026-05-06 05:53 13.87700 100.51416 29820 ft 486 kts 259°
2026-05-06 05:54 13.86427 100.44570 29815 ft 487 kts 260°
2026-05-06 05:54 13.85165 100.37672 29807 ft 487 kts 260°
2026-05-06 05:55 13.83889 100.30846 29800 ft 486 kts 259°
2026-05-06 05:55 13.82607 100.24064 29796 ft 485 kts 259°
2026-05-06 05:56 13.81315 100.17262 29789 ft 486 kts 259°
2026-05-06 05:56 13.80022 100.10456 29787 ft 486 kts 259°
2026-05-06 05:57 13.78724 100.03644 29791 ft 486 kts 259°
2026-05-06 05:57 13.77420 99.96808 29789 ft 486 kts 260°
2026-05-06 05:58 13.76123 99.90012 29796 ft 486 kts 260°
2026-05-06 05:58 13.74824 99.83201 29798 ft 486 kts 259°
2026-05-06 05:59 13.73520 99.76388 29801 ft 486 kts 259°
2026-05-06 05:59 13.72214 99.69612 29803 ft 486 kts 259°
2026-05-06 06:00 13.70893 99.62766 29818 ft 486 kts 259°
2026-05-06 06:00 13.69585 99.55984 29828 ft 486 kts 260°
2026-05-06 06:01 13.68273 99.49189 29833 ft 487 kts 259°
2026-05-06 06:01 13.66955 99.42361 29840 ft 487 kts 260°
2026-05-06 06:02 13.65634 99.35525 29852 ft 487 kts 259°
2026-05-06 06:02 13.64323 99.28746 29866 ft 486 kts 259°
2026-05-06 06:03 13.62998 99.21913 29879 ft 486 kts 259°
2026-05-06 06:03 13.61677 99.15122 29893 ft 486 kts 259°
2026-05-06 06:04 13.60350 99.08334 29906 ft 486 kts 259°
2026-05-06 06:04 13.59029 99.01571 29912 ft 485 kts 259°
2026-05-06 06:05 13.57703 98.94778 29926 ft 486 kts 259°
2026-05-06 06:05 13.56374 98.87969 29944 ft 486 kts 259°
2026-05-06 06:06 13.55049 98.81197 29963 ft 486 kts 259°
2026-05-06 06:06 13.53716 98.74393 29988 ft 486 kts 259°
2026-05-06 06:07 13.52385 98.67600 29983 ft 486 kts 259°
2026-05-06 06:07 13.51058 98.60834 29959 ft 487 kts 259°
2026-05-06 06:08 13.49721 98.54033 29930 ft 487 kts 259°
2026-05-06 06:08 13.48371 98.47203 29899 ft 487 kts 259°
2026-05-06 06:09 13.47020 98.40385 29877 ft 487 kts 259°
2026-05-06 06:09 13.45671 98.33567 29861 ft 488 kts 259°
2026-05-06 06:10 13.44326 98.26771 29846 ft 488 kts 259°
2026-05-06 06:10 13.42970 98.19939 29841 ft 488 kts 259°
2026-05-06 06:11 13.41611 98.13144 29831 ft 488 kts 259°
2026-05-06 06:11 13.40247 98.06313 29826 ft 488 kts 259°
2026-05-06 06:12 13.38889 97.99514 29821 ft 488 kts 259°
2026-05-06 06:12 13.37530 97.92707 29822 ft 489 kts 259°
2026-05-06 06:13 13.36163 97.85871 29821 ft 489 kts 259°
2026-05-06 06:13 13.34798 97.79050 29825 ft 488 kts 259°
2026-05-06 06:14 13.33430 97.72230 29829 ft 488 kts 259°
2026-05-06 06:14 13.32061 97.65414 29835 ft 489 kts 259°
2026-05-06 06:15 13.30691 97.58605 29838 ft 489 kts 259°
2026-05-06 06:15 13.29320 97.51804 29835 ft 489 kts 259°
2026-05-06 06:16 13.27937 97.44941 29837 ft 489 kts 259°
2026-05-06 06:16 13.26562 97.38135 29840 ft 489 kts 259°
2026-05-06 06:17 13.25187 97.31335 29839 ft 489 kts 259°
2026-05-06 06:17 13.23800 97.24487 29840 ft 489 kts 259°
2026-05-06 06:18 13.22415 97.17659 29840 ft 489 kts 259°
2026-05-06 06:18 13.21038 97.10886 29842 ft 488 kts 259°
2026-05-06 06:19 13.19643 97.04028 29842 ft 490 kts 259°
2026-05-06 06:19 13.18261 96.97239 29843 ft 490 kts 259°
2026-05-06 06:20 13.16867 96.90403 29848 ft 490 kts 259°
2026-05-06 06:20 13.15471 96.83572 29846 ft 490 kts 259°
2026-05-06 06:21 13.14073 96.76741 29843 ft 490 kts 259°
2026-05-06 06:21 13.12674 96.69916 29848 ft 490 kts 259°
2026-05-06 06:22 13.11275 96.63095 29847 ft 490 kts 259°
2026-05-06 06:22 13.09874 96.56274 29847 ft 491 kts 259°
2026-05-06 06:23 13.08475 96.49470 29850 ft 491 kts 259°
2026-05-06 06:23 13.07060 96.42602 29850 ft 490 kts 259°
2026-05-06 06:24 13.05655 96.35789 29849 ft 490 kts 259°
2026-05-06 06:24 13.04248 96.28981 29848 ft 490 kts 258°
2026-05-06 06:25 13.02832 96.22133 29843 ft 491 kts 258°
2026-05-06 06:26 13.00708 96.11880 29848 ft 491 kts 259°
2026-05-06 06:26 12.99296 96.05077 29844 ft 491 kts 259°
2026-05-06 06:27 12.97875 95.98239 29842 ft 490 kts 259°
2026-05-06 06:27 12.96456 95.91419 29837 ft 491 kts 258°
2026-05-06 06:28 12.95028 95.84562 29837 ft 491 kts 258°
2026-05-06 06:28 12.93611 95.77769 29839 ft 491 kts 258°
2026-05-06 06:29 12.92178 95.70901 29839 ft 492 kts 259°
2026-05-06 06:29 12.90745 95.64040 29840 ft 492 kts 259°
2026-05-06 06:30 12.89316 95.57204 29839 ft 493 kts 259°
2026-05-06 06:30 12.87737 95.50382 29840 ft 493 kts 255°
2026-05-06 06:31 12.85500 95.43759 29840 ft 495 kts 248°
2026-05-06 06:31 12.82683 95.37326 29841 ft 496 kts 246°
2026-05-06 06:32 12.79788 95.30909 29841 ft 497 kts 245°
2026-05-06 06:32 12.76910 95.24515 29842 ft 496 kts 246°
2026-05-06 06:33 12.74025 95.18098 29841 ft 496 kts 246°
2026-05-06 06:33 12.71141 95.11679 29840 ft 497 kts 246°
2026-05-06 06:34 12.68256 95.05262 29842 ft 498 kts 246°
2026-05-06 06:34 12.65365 94.98839 29844 ft 498 kts 246°
2026-05-06 06:35 12.62465 94.92398 29842 ft 498 kts 246°
2026-05-06 06:35 12.59582 94.86004 29845 ft 497 kts 246°
2026-05-06 06:36 12.56679 94.79563 29842 ft 497 kts 246°
2026-05-06 06:36 12.53796 94.73171 29840 ft 497 kts 245°
2026-05-06 06:37 12.50892 94.66742 29830 ft 496 kts 245°
2026-05-06 06:37 12.48000 94.60341 29830 ft 497 kts 245°
2026-05-06 06:38 12.45112 94.53949 29827 ft 497 kts 245°
2026-05-06 06:38 12.42215 94.47539 29826 ft 497 kts 245°
2026-05-06 06:39 12.39313 94.41129 29827 ft 497 kts 246°
2026-05-06 06:39 12.36437 94.34745 29826 ft 497 kts 245°
2026-05-06 06:40 12.33541 94.28298 29825 ft 496 kts 245°
2026-05-06 06:40 12.30680 94.21927 29830 ft 496 kts 245°
2026-05-06 06:41 12.27799 94.15515 29829 ft 495 kts 245°
2026-05-06 06:41 12.24923 94.09116 29829 ft 496 kts 245°
2026-05-06 06:42 12.22045 94.02721 29828 ft 496 kts 245°
2026-05-06 06:42 12.19201 93.96348 29828 ft 495 kts 246°
2026-05-06 06:43 12.16348 93.89925 29826 ft 495 kts 246°
2026-05-06 06:43 12.13521 93.83555 29835 ft 494 kts 246°
2026-05-06 06:44 12.10701 93.77208 29840 ft 492 kts 246°
2026-05-06 06:44 12.07867 93.70832 29840 ft 492 kts 246°
2026-05-06 06:45 12.05044 93.64487 29843 ft 492 kts 246°
2026-05-06 06:45 12.02215 93.58134 29843 ft 492 kts 246°
2026-05-06 06:46 11.99379 93.51772 29842 ft 491 kts 246°
2026-05-06 06:46 11.96548 93.45421 29841 ft 491 kts 246°
2026-05-06 06:47 11.93731 93.39109 29839 ft 490 kts 246°
2026-05-06 06:47 11.90911 93.32791 29834 ft 490 kts 246°
2026-05-06 06:48 11.88091 93.26479 29824 ft 489 kts 246°
2026-05-06 06:48 11.85273 93.20174 29825 ft 488 kts 246°
2026-05-06 06:49 11.82453 93.13872 29819 ft 488 kts 246°
2026-05-06 06:49 11.79651 93.07612 29821 ft 489 kts 246°
2026-05-06 06:50 11.76812 93.01273 29820 ft 489 kts 246°
2026-05-06 06:50 11.73988 92.94971 29826 ft 489 kts 246°
2026-05-06 06:51 11.71170 92.88682 29831 ft 489 kts 246°
2026-05-06 06:51 11.68358 92.82408 29837 ft 488 kts 246°
2026-05-06 06:52 11.65566 92.76074 29839 ft 488 kts 248°
2026-05-06 06:52 11.63300 92.69586 29838 ft 489 kts 253°
2026-05-06 06:53 11.61268 92.62971 29833 ft 489 kts 253°
2026-05-06 06:53 11.59241 92.56354 29828 ft 490 kts 253°
2026-05-06 06:54 11.57210 92.49734 29825 ft 490 kts 252°
2026-05-06 06:54 11.55173 92.43116 29823 ft 489 kts 252°
2026-05-06 06:55 11.53147 92.36556 29822 ft 488 kts 252°
2026-05-06 06:55 11.51106 92.29951 29822 ft 488 kts 252°
2026-05-06 06:56 11.49067 92.23349 29822 ft 487 kts 252°
2026-05-06 06:56 11.47048 92.16802 29822 ft 487 kts 252°
2026-05-06 06:57 11.45009 92.10211 29822 ft 486 kts 252°
2026-05-06 06:57 11.42974 92.03641 29822 ft 485 kts 252°
2026-05-06 06:58 11.40951 91.97111 29821 ft 486 kts 252°
2026-05-06 06:58 11.38925 91.90577 29819 ft 485 kts 252°
2026-05-06 06:59 11.36886 91.83991 29818 ft 486 kts 252°
2026-05-06 06:59 11.34836 91.77484 29814 ft 486 kts 251°
2026-05-06 07:00 11.32627 91.70974 29810 ft 486 kts 250°
2026-05-06 07:00 11.30419 91.64496 29810 ft 486 kts 250°
2026-05-06 07:01 11.28221 91.58012 29808 ft 486 kts 250°
2026-05-06 07:01 11.26012 91.51487 29807 ft 486 kts 251°
2026-05-06 07:02 11.23819 91.45006 29814 ft 486 kts 251°
2026-05-06 07:02 11.21622 91.38519 29819 ft 486 kts 251°
2026-05-06 07:03 11.19414 91.31998 29821 ft 486 kts 250°
2026-05-06 07:03 11.17204 91.25475 29821 ft 487 kts 250°
2026-05-06 07:04 11.14990 91.18948 29824 ft 487 kts 250°
2026-05-06 07:04 11.12774 91.12426 29823 ft 486 kts 250°
2026-05-06 07:05 11.10584 91.05981 29824 ft 486 kts 250°
2026-05-06 07:05 11.08378 90.99496 29820 ft 485 kts 250°
2026-05-06 07:06 11.06168 90.92996 29822 ft 486 kts 250°
2026-05-06 07:06 11.03962 90.86519 29820 ft 486 kts 250°
2026-05-06 07:07 11.01754 90.80044 29819 ft 486 kts 250°
2026-05-06 07:07 10.99530 90.73524 29819 ft 486 kts 250°
2026-05-06 07:08 10.97326 90.67068 29819 ft 486 kts 250°
2026-05-06 07:08 10.95106 90.60566 29818 ft 486 kts 250°
2026-05-06 07:09 10.92889 90.54081 29822 ft 486 kts 250°
2026-05-06 07:09 10.90659 90.47562 29819 ft 486 kts 250°
2026-05-06 07:10 10.88440 90.41081 29816 ft 487 kts 250°
2026-05-06 07:10 10.86212 90.34577 29807 ft 487 kts 250°
2026-05-06 07:11 10.83995 90.28109 29800 ft 487 kts 250°
2026-05-06 07:11 10.81758 90.21585 29799 ft 487 kts 250°
2026-05-06 07:12 10.79541 90.15124 29797 ft 487 kts 250°
2026-05-06 07:12 10.77315 90.08635 29800 ft 487 kts 250°
2026-05-06 07:13 10.75093 90.02165 29798 ft 486 kts 250°
2026-05-06 07:13 10.72813 89.95698 29801 ft 487 kts 249°
2026-05-06 07:14 10.70444 89.89241 29802 ft 487 kts 249°
2026-05-06 07:14 10.68090 89.82809 29802 ft 487 kts 249°
2026-05-06 07:15 10.65743 89.76377 29805 ft 487 kts 249°
2026-05-06 07:15 10.63384 89.69906 29811 ft 487 kts 249°
2026-05-06 07:16 10.61048 89.63496 29816 ft 486 kts 249°
2026-05-06 07:16 10.58699 89.57059 29819 ft 486 kts 249°
2026-05-06 07:17 10.56344 89.50607 29822 ft 486 kts 249°
2026-05-06 07:17 10.53992 89.44170 29822 ft 486 kts 249°
2026-05-06 07:18 10.51641 89.37740 29821 ft 486 kts 249°
2026-05-06 07:18 10.49301 89.31345 29821 ft 486 kts 249°
2026-05-06 07:19 10.46942 89.24900 29822 ft 485 kts 249°
2026-05-06 07:19 10.44599 89.18504 29822 ft 484 kts 249°
2026-05-06 07:20 10.42257 89.12112 29822 ft 484 kts 249°
2026-05-06 07:20 10.39907 89.05705 29822 ft 485 kts 249°
2026-05-06 07:21 10.37557 88.99304 29820 ft 485 kts 249°
2026-05-06 07:21 10.35199 88.92887 29812 ft 486 kts 249°
2026-05-06 07:22 10.32843 88.86472 29807 ft 487 kts 249°
2026-05-06 07:22 10.30479 88.80041 29805 ft 486 kts 249°
2026-05-06 07:23 10.28122 88.73633 29803 ft 485 kts 249°
2026-05-06 07:23 10.25773 88.67249 29802 ft 486 kts 249°
2026-05-06 07:24 10.23401 88.60801 29802 ft 487 kts 249°
2026-05-06 07:24 10.21038 88.54385 29800 ft 488 kts 249°
2026-05-06 07:25 10.18644 88.47920 29801 ft 488 kts 249°
2026-05-06 07:25 10.16261 88.41486 29801 ft 489 kts 249°
2026-05-06 07:26 10.13878 88.35040 29802 ft 488 kts 249°
2026-05-06 07:26 10.11505 88.28621 29801 ft 488 kts 249°
2026-05-06 07:27 10.09115 88.22156 29802 ft 489 kts 249°
2026-05-06 07:27 10.06738 88.15736 29801 ft 489 kts 249°
2026-05-06 07:28 10.04340 88.09257 29802 ft 490 kts 249°
2026-05-06 07:28 10.00754 87.99583 29802 ft 490 kts 249°
2026-05-06 07:29 9.98355 87.93115 29802 ft 491 kts 249°
2026-05-06 07:29 9.95949 87.86633 29803 ft 490 kts 249°
2026-05-06 07:30 9.93547 87.80161 29802 ft 490 kts 249°
2026-05-06 07:30 9.91155 87.73725 29802 ft 491 kts 248°
2026-05-06 07:31 9.88747 87.67245 29804 ft 491 kts 248°
2026-05-06 07:31 9.86349 87.60802 29805 ft 490 kts 249°
2026-05-06 07:32 9.83948 87.54349 29810 ft 490 kts 249°
2026-05-06 07:32 9.81534 87.47864 29814 ft 490 kts 249°
2026-05-06 07:33 9.79139 87.41424 29813 ft 491 kts 248°
2026-05-06 07:33 9.76730 87.34958 29805 ft 491 kts 249°
2026-05-06 07:34 9.74435 87.28457 29803 ft 491 kts 250°
2026-05-06 07:34 9.72186 87.21933 29802 ft 491 kts 250°
2026-05-06 07:35 9.69943 87.15446 29802 ft 491 kts 250°
2026-05-06 07:35 9.67680 87.08920 29803 ft 490 kts 250°
2026-05-06 07:36 9.65418 87.02410 29800 ft 490 kts 250°
2026-05-06 07:36 9.63161 86.95916 29801 ft 490 kts 250°
2026-05-06 07:37 9.60895 86.89405 29801 ft 490 kts 250°
2026-05-06 07:37 9.58632 86.82907 29800 ft 490 kts 250°
2026-05-06 07:38 9.56367 86.76406 29801 ft 490 kts 250°
2026-05-06 07:38 9.54107 86.69924 29801 ft 489 kts 250°
2026-05-06 07:39 9.51845 86.63438 29801 ft 490 kts 250°
2026-05-06 07:39 9.49576 86.56939 29801 ft 489 kts 250°
2026-05-06 07:40 9.47307 86.50444 29801 ft 490 kts 249°
2026-05-06 07:40 9.45043 86.43968 29801 ft 489 kts 250°
2026-05-06 07:41 9.42775 86.37485 29801 ft 489 kts 250°
2026-05-06 07:41 9.40493 86.30964 29801 ft 489 kts 249°
2026-05-06 07:42 9.38232 86.24505 29801 ft 489 kts 249°
2026-05-06 07:42 9.35970 86.18047 29799 ft 489 kts 249°
2026-05-06 07:43 9.33692 86.11549 29799 ft 489 kts 249°
2026-05-06 07:43 9.31422 86.05077 29799 ft 489 kts 249°
2026-05-06 07:44 9.29156 85.98609 29797 ft 489 kts 249°
2026-05-06 07:44 9.26876 85.92105 29792 ft 489 kts 249°
2026-05-06 07:45 9.24595 85.85599 29792 ft 489 kts 250°
2026-05-06 07:45 9.22369 85.79087 29790 ft 489 kts 250°
2026-05-06 07:46 9.20172 85.72620 29789 ft 489 kts 250°
2026-05-06 07:46 9.17956 85.66103 29790 ft 489 kts 250°
2026-05-06 07:47 9.15742 85.59600 29794 ft 489 kts 250°
2026-05-06 07:47 9.13527 85.53096 29799 ft 489 kts 250°
2026-05-06 07:48 9.11319 85.46621 29801 ft 489 kts 250°
2026-05-06 07:48 9.09113 85.40156 29801 ft 489 kts 250°
2026-05-06 07:49 9.06894 85.33654 29800 ft 489 kts 250°
2026-05-06 07:49 9.04662 85.27121 29800 ft 490 kts 250°
2026-05-06 07:50 9.02450 85.20647 29801 ft 490 kts 250°
2026-05-06 07:50 9.00225 85.14140 29801 ft 490 kts 250°
2026-05-06 07:51 8.98003 85.07642 29801 ft 490 kts 250°
2026-05-06 07:51 8.95771 85.01117 29801 ft 491 kts 250°
2026-05-06 07:52 8.93542 84.94607 29802 ft 491 kts 250°
2026-05-06 07:52 8.91320 84.88116 29802 ft 490 kts 250°
2026-05-06 07:53 8.89093 84.81612 29802 ft 491 kts 250°
2026-05-06 07:53 8.86866 84.75095 29802 ft 491 kts 250°
2026-05-06 07:54 8.84655 84.68570 29802 ft 491 kts 250°
2026-05-06 07:54 8.82449 84.62052 29799 ft 492 kts 250°
2026-05-06 07:55 8.80249 84.55555 29799 ft 492 kts 250°
2026-05-06 07:55 8.78030 84.49002 29797 ft 492 kts 250°
2026-05-06 07:56 8.75818 84.42476 29794 ft 492 kts 250°
2026-05-06 07:56 8.73611 84.35967 29792 ft 492 kts 250°
2026-05-06 07:57 8.71389 84.29417 29787 ft 492 kts 250°
2026-05-06 07:57 8.69175 84.22898 29783 ft 492 kts 250°
2026-05-06 07:58 8.66953 84.16358 29788 ft 492 kts 250°
2026-05-06 07:58 8.64743 84.09856 29797 ft 492 kts 250°
2026-05-06 07:59 8.62520 84.03319 29800 ft 492 kts 250°
2026-05-06 07:59 8.60288 83.96762 29801 ft 492 kts 250°
2026-05-06 08:00 8.58067 83.90242 29801 ft 493 kts 250°
2026-05-06 08:00 8.55847 83.83725 29801 ft 492 kts 250°
2026-05-06 08:01 8.53614 83.77175 29801 ft 493 kts 250°
2026-05-06 08:01 8.51386 83.70647 29801 ft 493 kts 250°
2026-05-06 08:02 8.49165 83.64143 29801 ft 492 kts 250°
2026-05-06 08:02 8.46926 83.57585 29801 ft 492 kts 250°
2026-05-06 08:03 8.44693 83.51052 29801 ft 493 kts 250°
2026-05-06 08:03 8.42459 83.44519 29801 ft 493 kts 250°
2026-05-06 08:04 8.40210 83.37946 29801 ft 493 kts 250°
2026-05-06 08:04 8.37979 83.31432 29801 ft 493 kts 250°
2026-05-06 08:05 8.35743 83.24897 29801 ft 493 kts 250°
2026-05-06 08:05 8.33500 83.18352 29801 ft 493 kts 250°
2026-05-06 08:06 8.31267 83.11837 29800 ft 493 kts 250°
2026-05-06 08:06 8.29023 83.05294 29800 ft 493 kts 250°
2026-05-06 08:07 8.26787 82.98773 29800 ft 493 kts 250°
2026-05-06 08:07 8.24541 82.92219 29799 ft 493 kts 250°
2026-05-06 08:08 8.22302 82.85715 29792 ft 493 kts 250°
2026-05-06 08:08 8.20022 82.79182 29784 ft 493 kts 250°
2026-05-06 08:09 8.17744 82.72651 29781 ft 493 kts 250°
2026-05-06 08:09 8.15473 82.66130 29780 ft 494 kts 250°
2026-05-06 08:10 8.13197 82.59593 29780 ft 493 kts 250°
2026-05-06 08:10 8.10935 82.53093 29781 ft 494 kts 250°
2026-05-06 08:11 8.08665 82.46578 29780 ft 493 kts 250°
2026-05-06 08:11 8.06391 82.40055 29780 ft 494 kts 250°
2026-05-06 08:12 8.04112 82.33514 29779 ft 494 kts 250°
2026-05-06 08:12 8.01835 82.26986 29780 ft 495 kts 250°
2026-05-06 08:13 7.99551 82.20443 29787 ft 495 kts 250°
2026-05-06 08:13 7.97272 82.13921 29795 ft 495 kts 250°
2026-05-06 08:14 7.94984 82.07371 29798 ft 495 kts 250°
2026-05-06 08:14 7.92708 82.00863 29802 ft 494 kts 250°
2026-05-06 08:15 7.90414 81.94300 29798 ft 495 kts 250°
2026-05-06 08:15 7.88120 81.87746 29796 ft 494 kts 250°
2026-05-06 08:16 7.85836 81.81226 29795 ft 494 kts 250°
2026-05-06 08:16 7.83550 81.74702 29795 ft 494 kts 250°
2026-05-06 08:17 7.81261 81.68171 29791 ft 494 kts 250°
2026-05-06 08:17 7.78978 81.61659 29786 ft 494 kts 250°
2026-05-06 08:18 7.76688 81.55136 29786 ft 494 kts 250°
2026-05-06 08:18 7.74405 81.48637 29784 ft 494 kts 250°
2026-05-06 08:19 7.72110 81.42104 29789 ft 495 kts 250°
2026-05-06 08:19 7.69816 81.35577 29798 ft 494 kts 250°
2026-05-06 08:20 7.67526 81.29059 29808 ft 494 kts 250°
2026-05-06 08:20 7.65239 81.22553 29805 ft 494 kts 250°
2026-05-06 08:21 7.62957 81.16065 29810 ft 494 kts 250°
2026-05-06 08:21 7.60667 81.09551 29823 ft 494 kts 250°
2026-05-06 08:22 7.58377 81.03044 29824 ft 494 kts 249°
2026-05-06 08:22 7.56062 80.96551 29824 ft 493 kts 249°
2026-05-06 08:23 7.53687 80.90048 29861 ft 494 kts 249°
2026-05-06 08:23 7.51319 80.83552 29894 ft 494 kts 249°
2026-05-06 08:24 7.48977 80.77110 29922 ft 494 kts 249°
2026-05-06 08:24 7.46612 80.70606 29931 ft 493 kts 249°
2026-05-06 08:25 7.44251 80.64106 29911 ft 493 kts 249°
2026-05-06 08:25 7.41905 80.57655 29895 ft 494 kts 249°
2026-05-06 08:26 7.39537 80.51151 29870 ft 494 kts 249°
2026-05-06 08:26 7.37186 80.44691 29854 ft 494 kts 249°
2026-05-06 08:27 7.34822 80.38199 29843 ft 494 kts 249°
2026-05-06 08:27 7.32451 80.31691 29832 ft 494 kts 249°
2026-05-06 08:28 7.30092 80.25218 29817 ft 494 kts 248°
2026-05-06 08:28 7.27738 80.18761 29797 ft 493 kts 248°
2026-05-06 08:29 7.25372 80.12274 29792 ft 493 kts 248°
2026-05-06 08:29 7.23004 80.05782 29788 ft 494 kts 248°
2026-05-06 08:30 7.20645 79.99312 29791 ft 494 kts 248°
2026-05-06 08:30 7.18275 79.92812 29796 ft 494 kts 248°
2026-05-06 08:31 7.15836 79.86382 29797 ft 492 kts 245°
2026-05-06 08:31 7.12999 79.80147 29797 ft 492 kts 243°
2026-05-06 08:32 7.10108 79.73916 29797 ft 492 kts 243°
2026-05-06 08:32 7.07215 79.67667 29792 ft 493 kts 243°
2026-05-06 08:33 7.04319 79.61404 29788 ft 493 kts 243°
2026-05-06 08:33 7.01441 79.55178 29783 ft 493 kts 243°
2026-05-06 08:34 6.97097 79.45789 29783 ft 493 kts 244°
2026-05-06 08:35 6.94212 79.39546 29782 ft 493 kts 244°
2026-05-06 08:35 6.91319 79.33292 29782 ft 493 kts 243°
2026-05-06 08:36 6.88435 79.27060 29782 ft 493 kts 244°
2026-05-06 08:36 6.85535 79.20794 29783 ft 493 kts 243°
2026-05-06 08:37 6.82645 79.14548 29783 ft 493 kts 244°
2026-05-06 08:37 6.79747 79.08282 29782 ft 493 kts 243°
2026-05-06 08:38 6.76800 79.02084 29781 ft 492 kts 242°
2026-05-06 08:38 6.73679 78.95943 29779 ft 493 kts 242°
2026-05-06 08:39 6.70565 78.89811 29776 ft 493 kts 242°
2026-05-06 08:39 6.67462 78.83665 29768 ft 493 kts 242°
2026-05-06 08:40 6.64369 78.77524 29766 ft 492 kts 242°
2026-05-06 08:40 6.61295 78.71418 29765 ft 493 kts 242°
2026-05-06 08:41 6.58203 78.65281 29767 ft 493 kts 242°
2026-05-06 08:41 6.55094 78.59110 29767 ft 493 kts 242°
2026-05-06 08:42 6.52007 78.52985 29768 ft 493 kts 242°
2026-05-06 08:42 6.48905 78.46832 29769 ft 493 kts 242°
2026-05-06 08:43 6.45810 78.40694 29771 ft 493 kts 242°
2026-05-06 08:43 6.42809 78.34749 29778 ft 493 kts 242°
2026-05-06 08:44 6.39707 78.28602 29785 ft 493 kts 242°
2026-05-06 08:44 6.36608 78.22463 29782 ft 493 kts 242°
2026-05-06 08:45 6.33504 78.16315 29782 ft 494 kts 242°
2026-05-06 08:45 6.30411 78.10193 29781 ft 494 kts 242°
2026-05-06 08:46 6.27308 78.04054 29780 ft 494 kts 242°
2026-05-06 08:46 6.24195 77.97896 29782 ft 494 kts 242°
2026-05-06 08:47 6.21093 77.91761 29779 ft 493 kts 242°
2026-05-06 08:47 6.17975 77.85596 29778 ft 493 kts 242°
2026-05-06 08:48 6.14872 77.79460 29782 ft 494 kts 242°
2026-05-06 08:48 6.11775 77.73338 29779 ft 494 kts 242°
2026-05-06 08:49 6.08659 77.67181 29779 ft 494 kts 242°
2026-05-06 08:49 6.05553 77.61041 29783 ft 494 kts 242°
2026-05-06 08:50 6.02447 77.54900 29778 ft 494 kts 242°
2026-05-06 08:50 5.99387 77.48725 29780 ft 494 kts 244°
2026-05-06 08:51 5.96536 77.42454 29778 ft 494 kts 244°
2026-05-06 08:51 5.93705 77.36173 29780 ft 494 kts 244°
2026-05-06 08:52 5.90871 77.29884 29781 ft 494 kts 244°
2026-05-06 08:52 5.88045 77.23620 29780 ft 494 kts 244°
2026-05-06 08:53 5.85219 77.17355 29780 ft 494 kts 244°
2026-05-06 08:53 5.82393 77.11093 29780 ft 493 kts 244°
2026-05-06 08:54 5.79557 77.04809 29779 ft 494 kts 244°
2026-05-06 08:54 5.76722 76.98531 29780 ft 493 kts 244°
2026-05-06 08:55 5.73906 76.92296 29780 ft 494 kts 244°
2026-05-06 08:55 5.71049 76.85979 29780 ft 494 kts 244°
2026-05-06 08:56 5.68217 76.79712 29781 ft 495 kts 244°
2026-05-06 08:56 5.65369 76.73415 29778 ft 494 kts 244°
2026-05-06 08:57 5.62541 76.67162 29779 ft 494 kts 244°
2026-05-06 08:57 5.59703 76.60891 29776 ft 494 kts 244°
2026-05-06 08:58 5.56865 76.54618 29781 ft 495 kts 244°
2026-05-06 08:58 5.54026 76.48346 29788 ft 496 kts 244°
2026-05-06 08:59 5.51178 76.42057 29794 ft 496 kts 244°
2026-05-06 08:59 5.48320 76.35751 29796 ft 495 kts 244°
2026-05-06 09:00 5.45470 76.29459 29796 ft 494 kts 244°
2026-05-06 09:00 5.42636 76.23199 29796 ft 495 kts 244°
2026-05-06 09:01 5.39791 76.16921 29799 ft 495 kts 244°
2026-05-06 09:01 5.36939 76.10619 29796 ft 496 kts 244°
2026-05-06 09:02 5.34106 76.04366 29799 ft 496 kts 244°
2026-05-06 09:02 5.31240 75.98085 29802 ft 495 kts 244°
2026-05-06 09:03 5.28382 75.91818 29802 ft 494 kts 244°
2026-05-06 09:03 5.25534 75.85562 29801 ft 494 kts 244°
2026-05-06 09:04 5.22672 75.79268 29804 ft 495 kts 244°
2026-05-06 09:04 5.19829 75.73019 29803 ft 495 kts 244°
2026-05-06 09:05 5.16976 75.66748 29801 ft 495 kts 244°
2026-05-06 09:05 5.14102 75.60435 29804 ft 495 kts 244°
2026-05-06 09:06 5.11253 75.54173 29802 ft 495 kts 244°
2026-05-06 09:06 5.08395 75.47897 29803 ft 495 kts 244°
2026-05-06 09:07 5.05536 75.41620 29802 ft 496 kts 244°
2026-05-06 09:07 5.02674 75.35338 29804 ft 496 kts 244°
2026-05-06 09:08 4.99792 75.29016 29802 ft 496 kts 244°
2026-05-06 09:08 4.96918 75.22710 29801 ft 498 kts 244°
2026-05-06 09:09 4.94054 75.16428 29803 ft 499 kts 244°
2026-05-06 09:09 4.91172 75.10110 29801 ft 499 kts 244°
2026-05-06 09:10 4.88284 75.03778 29804 ft 498 kts 244°
2026-05-06 09:10 4.85411 74.97482 29801 ft 498 kts 244°
2026-05-06 09:11 4.82523 74.91157 29799 ft 498 kts 245°
2026-05-06 09:11 4.79645 74.84854 29711 ft 499 kts 245°
2026-05-06 09:11 4.78213 74.81721 29456 ft 497 kts 245°
2026-05-06 09:12 4.76768 74.78558 29203 ft 495 kts 245°
2026-05-06 09:12 4.75341 74.75434 28952 ft 492 kts 245°
2026-05-06 09:12 4.73929 74.72345 28702 ft 488 kts 245°
2026-05-06 09:12 4.72525 74.69272 28455 ft 487 kts 245°
2026-05-06 09:13 4.71108 74.66171 28211 ft 487 kts 245°
2026-05-06 09:13 4.69707 74.63101 27970 ft 487 kts 245°
2026-05-06 09:13 4.68291 74.60002 27726 ft 486 kts 245°
2026-05-06 09:13 4.66893 74.56943 27486 ft 486 kts 246°
2026-05-06 09:14 4.65485 74.53861 27243 ft 487 kts 246°
2026-05-06 09:14 4.64083 74.50793 27002 ft 486 kts 246°
2026-05-06 09:14 4.62678 74.47716 26759 ft 486 kts 246°
2026-05-06 09:14 4.61269 74.44632 26379 ft 487 kts 246°
2026-05-06 09:15 4.59852 74.41534 25693 ft 488 kts 246°
2026-05-06 09:15 4.58445 74.38452 24927 ft 487 kts 246°
2026-05-06 09:15 4.57039 74.35372 24114 ft 487 kts 246°
2026-05-06 09:15 4.55651 74.32335 23285 ft 487 kts 246°
2026-05-06 09:16 4.54236 74.29243 22515 ft 484 kts 246°
2026-05-06 09:16 4.52881 74.26219 21995 ft 475 kts 247°
2026-05-06 09:16 4.51558 74.23201 21459 ft 467 kts 248°
2026-05-06 09:16 4.50276 74.20255 20907 ft 461 kts 248°
2026-05-06 09:17 4.49005 74.17328 20322 ft 455 kts 248°
2026-05-06 09:17 4.47752 74.14447 19740 ft 450 kts 248°
2026-05-06 09:17 4.46500 74.11571 19148 ft 445 kts 248°
2026-05-06 09:17 4.45281 74.08775 18575 ft 440 kts 247°
2026-05-06 09:18 4.44064 74.05983 17994 ft 435 kts 247°
2026-05-06 09:18 4.42853 74.03204 17419 ft 429 kts 247°
2026-05-06 09:18 4.41667 74.00488 16864 ft 424 kts 248°
2026-05-06 09:18 4.40504 73.97822 16282 ft 420 kts 247°
2026-05-06 09:19 4.39342 73.95159 15666 ft 418 kts 248°
2026-05-06 09:19 4.38187 73.92509 15038 ft 415 kts 247°
2026-05-06 09:19 4.37038 73.89875 14534 ft 409 kts 248°
2026-05-06 09:19 4.35903 73.87273 14149 ft 398 kts 248°
2026-05-06 09:20 4.34834 73.84824 13883 ft 374 kts 248°
2026-05-06 09:20 4.33831 73.82523 13638 ft 348 kts 248°
2026-05-06 09:20 4.32891 73.80366 13418 ft 334 kts 248°
2026-05-06 09:20 4.31956 73.78218 13205 ft 331 kts 248°
2026-05-06 09:21 4.31049 73.76137 12984 ft 329 kts 248°
2026-05-06 09:21 4.30128 73.74032 12813 ft 326 kts 247°
2026-05-06 09:21 4.28980 73.72092 12380 ft 331 kts 230°
2026-05-06 09:21 4.27147 73.70690 11881 ft 335 kts 207°
2026-05-06 09:22 4.24899 73.70114 11507 ft 334 kts 184°
2026-05-06 09:22 4.22569 73.70324 11121 ft 334 kts 167°
2026-05-06 09:22 4.20352 73.70981 10715 ft 334 kts 165°
2026-05-06 09:22 4.18065 73.71448 10407 ft 324 kts 175°
2026-05-06 09:23 4.15888 73.71488 10268 ft 307 kts 186°
2026-05-06 09:23 4.13771 73.71150 9904 ft 306 kts 196°
2026-05-06 09:23 4.11774 73.70487 9437 ft 301 kts 205°
2026-05-06 09:23 4.09913 73.69559 8954 ft 298 kts 212°
2026-05-06 09:24 4.08202 73.68415 8469 ft 294 kts 219°
2026-05-06 09:24 4.06647 73.67093 7995 ft 291 kts 226°
2026-05-06 09:24 4.05256 73.65615 7534 ft 292 kts 232°
2026-05-06 09:24 4.04027 73.63997 7061 ft 290 kts 238°
2026-05-06 09:25 4.02995 73.62299 6566 ft 285 kts 244°
2026-05-06 09:25 4.02151 73.60531 6095 ft 281 kts 250°
2026-05-06 09:25 4.01343 73.58761 5614 ft 281 kts 238°
2026-05-06 09:25 4.00065 73.57295 5158 ft 280 kts 227°
2026-05-06 09:26 3.98676 73.55930 4676 ft 277 kts 227°
2026-05-06 09:26 3.97340 73.54565 4186 ft 275 kts 229°
2026-05-06 09:26 3.96037 73.53159 3708 ft 272 kts 230°
2026-05-06 09:26 3.94887 73.51692 3230 ft 267 kts 247°
2026-05-06 09:27 3.94585 73.49927 2745 ft 258 kts 281°
2026-05-06 09:27 3.95379 73.48351 2263 ft 252 kts 317°
2026-05-06 09:27 3.96903 73.47636 2000 ft 243 kts 355°
2026-05-06 09:27 3.98473 73.48033 1974 ft 231 kts 34°
2026-05-06 09:28 3.99393 73.49291 1988 ft 227 kts 70°
2026-05-06 09:28 3.99797 73.50770 2083 ft 209 kts 68°
2026-05-06 09:28 4.00403 73.52012 2015 ft 190 kts 54°
2026-05-06 09:28 4.01186 73.52991 1957 ft 168 kts 30°
2026-05-06 09:29 4.02246 73.53243 2001 ft 156 kts 358°
2026-05-06 09:29 4.03332 73.53202 2008 ft 156 kts 354°
2026-05-06 09:29 4.04437 73.53148 2001 ft 157 kts 355°
2026-05-06 09:29 4.05533 73.53119 2002 ft 158 kts 356°
2026-05-06 09:30 4.06630 73.53106 2000 ft 157 kts 356°
2026-05-06 09:30 4.07727 73.53104 1975 ft 152 kts 357°
2026-05-06 09:30 4.08774 73.53104 1814 ft 148 kts 357°
2026-05-06 09:30 4.09802 73.53103 1623 ft 148 kts 357°
2026-05-06 09:31 4.10831 73.53104 1433 ft 147 kts 357°
2026-05-06 09:31 4.11861 73.53103 1244 ft 146 kts 357°
2026-05-06 09:31 4.12886 73.53103 1056 ft 146 kts 357°
2026-05-06 09:31 4.13901 73.53103 876 ft 146 kts 357°
2026-05-06 09:32 4.14924 73.53102 691 ft 145 kts 358°
2026-05-06 09:32 4.15932 73.53102 511 ft 145 kts 358°
2026-05-06 09:32 4.16952 73.53104 323 ft 144 kts 358°
2026-05-06 09:32 4.17912 73.53104 153 ft 143 kts 358°
2026-05-06 09:33 4.18895 73.53114 18 ft 137 kts 359°
2026-05-06 09:33 4.19733 73.53102 11 ft 97 kts 358°
2026-05-06 09:33 4.20240 73.53101 11 ft 44 kts
2026-05-06 09:33 4.20372 73.53033 11 ft 14 kts 274°
2026-05-06 09:34 4.20373 73.52950 11 ft 10 kts 271°
2026-05-06 09:34 4.20341 73.52902 11 ft 8 kts 199°
2026-05-06 09:34 4.20279 73.52896 11 ft 10 kts 179°
2026-05-06 09:34 4.20200 73.52897 11 ft 12 kts 181°
2026-05-06 09:35 4.20110 73.52899 11 ft 13 kts 179°
2026-05-06 09:35 4.20015 73.52902 11 ft 13 kts 179°
2026-05-06 09:35 4.19914 73.52902 11 ft 16 kts 179°
2026-05-06 09:35 4.19788 73.52904 11 ft 19 kts 179°
2026-05-06 09:36 4.19648 73.52907 11 ft 20 kts 179°
2026-05-06 09:36 4.19502 73.52909 11 ft 21 kts 179°
2026-05-06 09:36 4.19348 73.52911 11 ft 22 kts 179°
2026-05-06 09:36 4.19193 73.52914 11 ft 22 kts 179°
2026-05-06 09:37 4.19035 73.52920 11 ft 22 kts 179°
2026-05-06 09:37 4.18932 73.52886 11 ft 12 kts 240°
2026-05-06 09:37 4.18879 73.52852 11 ft 8 kts 185°
2026-05-06 09:37 4.18820 73.52851 11 ft 9 kts 180°
2026-05-06 09:38 4.18742 73.52853 11 ft 12 kts 178°
2026-05-06 09:38 4.18679 73.52846 11 ft 6 kts 218°
2026-05-06 09:38 4.18669 73.52816 11 ft 3 kts 270°
2026-05-06 09:38 4.18669 73.52801 11 ft 0 kts 269°
2026-05-06 09:39 4.18669 73.52798 11 ft 0 kts 269°